Volver al catálogo

RESOURCESAT 2A

ActivoCienciaSSO
NORAD 41877·PAYLOAD·🇮🇳 India

Lanzado Dec 7, 2016 desde Satish Dhawan Space Centre

Loading…

Próximos Pases (próximas 24 horas)

TLE

ActualizadoSource: Space-Track

Época: Sep 14, 2026, 14:19 UTC

1 41877U 16074A   26257.59714451  .00000199  00000-0  11067-3 0  9990
2 41877  98.7463 330.3395 0002423 154.0903 206.0396 14.21613474507006

Sigue RESOURCESAT 2A en tiempo real con AllMySat

Download on the App Store